﻿測定場所 (Monitoring sites),日付 (Measurement date),時間 (Measurement time),線量率 最大値 (max) μGy/h,線量率 最小値 (min) μGy/h,線量率 平均値 (average) μGy/h,
新宿 (Shinjuku),2013-01-13,23:01～24:00,0.0490,0.0415,0.0458,
新宿 (Shinjuku),2013-01-13,22:01～23:00,0.0485,0.0423,0.0459,
新宿 (Shinjuku),2013-01-13,21:01～22:00,0.0494,0.0427,0.0458,
新宿 (Shinjuku),2013-01-13,20:01～21:00,0.0484,0.0427,0.0458,
新宿 (Shinjuku),2013-01-13,19:01～20:00,0.0496,0.0430,0.0458,
新宿 (Shinjuku),2013-01-13,18:01～19:00,0.0487,0.0422,0.0454,
新宿 (Shinjuku),2013-01-13,17:01～18:00,0.0482,0.0432,0.0454,
新宿 (Shinjuku),2013-01-13,16:01～17:00,0.0481,0.0432,0.0457,
新宿 (Shinjuku),2013-01-13,15:01～16:00,0.0486,0.0415,0.0454,
新宿 (Shinjuku),2013-01-13,14:01～15:00,0.0487,0.0423,0.0457,
新宿 (Shinjuku),2013-01-13,13:01～14:00,0.0494,0.0432,0.0460,
新宿 (Shinjuku),2013-01-13,12:01～13:00,0.0499,0.0420,0.0459,
新宿 (Shinjuku),2013-01-13,11:01～12:00,0.0501,0.0425,0.0464,
新宿 (Shinjuku),2013-01-13,10:01～11:00,0.0511,0.0441,0.0473,
新宿 (Shinjuku),2013-01-13,09:01～10:00,0.0509,0.0432,0.0476,
新宿 (Shinjuku),2013-01-13,08:01～09:00,0.0505,0.0438,0.0474,
新宿 (Shinjuku),2013-01-13,07:01～08:00,0.0512,0.0448,0.0473,
新宿 (Shinjuku),2013-01-13,06:01～07:00,0.0523,0.0441,0.0474,
新宿 (Shinjuku),2013-01-13,05:01～06:00,0.0495,0.0437,0.0471,
新宿 (Shinjuku),2013-01-13,04:01～05:00,0.0499,0.0432,0.0467,
新宿 (Shinjuku),2013-01-13,03:01～04:00,0.0505,0.0447,0.0472,
新宿 (Shinjuku),2013-01-13,02:01～03:00,0.0514,0.0426,0.0473,
新宿 (Shinjuku),2013-01-13,01:01～02:00,0.0496,0.0454,0.0472,
新宿 (Shinjuku),2013-01-13,00:01～01:00,0.0499,0.0422,0.0467,
新宿 (Shinjuku),2013-01-12,23:01～24:00,0.0503,0.0432,0.0465,
新宿 (Shinjuku),2013-01-12,22:01～23:00,0.0520,0.0428,0.0463,
新宿 (Shinjuku),2013-01-12,21:01～22:00,0.0491,0.0428,0.0459,
新宿 (Shinjuku),2013-01-12,20:01～21:00,0.0492,0.0439,0.0463,
新宿 (Shinjuku),2013-01-12,19:01～20:00,0.0501,0.0429,0.0462,
新宿 (Shinjuku),2013-01-12,18:01～19:00,0.0491,0.0423,0.0463,
新宿 (Shinjuku),2013-01-12,17:01～18:00,0.0496,0.0444,0.0461,
新宿 (Shinjuku),2013-01-12,16:01～17:00,0.0489,0.0422,0.0459,
新宿 (Shinjuku),2013-01-12,15:01～16:00,0.0499,0.0429,0.0459,
新宿 (Shinjuku),2013-01-12,14:01～15:00,0.0501,0.0427,0.0461,
新宿 (Shinjuku),2013-01-12,13:01～14:00,0.0498,0.0422,0.0460,
新宿 (Shinjuku),2013-01-12,12:01～13:00,0.0491,0.0430,0.0458,
新宿 (Shinjuku),2013-01-12,11:01～12:00,0.0496,0.0443,0.0468,
新宿 (Shinjuku),2013-01-12,10:01～11:00,0.0509,0.0446,0.0467,
新宿 (Shinjuku),2013-01-12,09:01～10:00,0.0509,0.0444,0.0470,
新宿 (Shinjuku),2013-01-12,08:01～09:00,0.0493,0.0433,0.0466,
新宿 (Shinjuku),2013-01-12,07:01～08:00,0.0505,0.0419,0.0464,
新宿 (Shinjuku),2013-01-12,06:01～07:00,0.0491,0.0426,0.0464,
新宿 (Shinjuku),2013-01-12,05:01～06:00,0.0483,0.0430,0.0462,
新宿 (Shinjuku),2013-01-12,04:01～05:00,0.0490,0.0428,0.0457,
新宿 (Shinjuku),2013-01-12,03:01～04:00,0.0484,0.0421,0.0456,
新宿 (Shinjuku),2013-01-12,02:01～03:00,0.0493,0.0428,0.0460,
新宿 (Shinjuku),2013-01-12,01:01～02:00,0.0501,0.0434,0.0464,
新宿 (Shinjuku),2013-01-12,00:01～01:00,0.0496,0.0424,0.0459,
新宿 (Shinjuku),2013-01-11,23:01～24:00,0.0488,0.0426,0.0456,
新宿 (Shinjuku),2013-01-11,22:01～23:00,0.0488,0.0429,0.0457,
新宿 (Shinjuku),2013-01-11,21:01～22:00,0.0515,0.0417,0.0457,
新宿 (Shinjuku),2013-01-11,20:01～21:00,0.0487,0.0426,0.0460,
新宿 (Shinjuku),2013-01-11,19:01～20:00,0.0498,0.0431,0.0459,
新宿 (Shinjuku),2013-01-11,18:01～19:00,0.0493,0.0424,0.0453,
新宿 (Shinjuku),2013-01-11,17:01～18:00,0.0483,0.0424,0.0457,
新宿 (Shinjuku),2013-01-11,16:01～17:00,0.0479,0.0414,0.0450,
新宿 (Shinjuku),2013-01-11,15:01～16:00,0.0482,0.0419,0.0454,
新宿 (Shinjuku),2013-01-11,14:01～15:00,0.0492,0.0416,0.0452,
新宿 (Shinjuku),2013-01-11,13:01～14:00,0.0491,0.0426,0.0456,
新宿 (Shinjuku),2013-01-11,12:01～13:00,0.0499,0.0430,0.0459,
新宿 (Shinjuku),2013-01-11,11:01～12:00,0.0498,0.0430,0.0462,
新宿 (Shinjuku),2013-01-11,10:01～11:00,0.0498,0.0432,0.0460,
新宿 (Shinjuku),2013-01-11,09:01～10:00,0.0491,0.0417,0.0455,
新宿 (Shinjuku),2013-01-11,08:01～09:00,0.0505,0.0419,0.0459,
新宿 (Shinjuku),2013-01-11,07:01～08:00,0.0499,0.0431,0.0460,
新宿 (Shinjuku),2013-01-11,06:01～07:00,0.0495,0.0434,0.0462,
新宿 (Shinjuku),2013-01-11,05:01～06:00,0.0490,0.0438,0.0461,
新宿 (Shinjuku),2013-01-11,04:01～05:00,0.0494,0.0427,0.0460,
新宿 (Shinjuku),2013-01-11,03:01～04:00,0.0507,0.0428,0.0461,
新宿 (Shinjuku),2013-01-11,02:01～03:00,0.0507,0.0421,0.0460,
新宿 (Shinjuku),2013-01-11,01:01～02:00,0.0488,0.0422,0.0458,
新宿 (Shinjuku),2013-01-11,00:01～01:00,0.0493,0.0436,0.0460,
新宿 (Shinjuku),2013-01-10,23:01～24:00,0.0501,0.0427,0.0459,
新宿 (Shinjuku),2013-01-10,22:01～23:00,0.0496,0.0416,0.0456,
新宿 (Shinjuku),2013-01-10,21:01～22:00,0.0488,0.0421,0.0458,
新宿 (Shinjuku),2013-01-10,20:01～21:00,0.0503,0.0427,0.0458,
新宿 (Shinjuku),2013-01-10,19:01～20:00,0.0496,0.0412,0.0455,
新宿 (Shinjuku),2013-01-10,18:01～19:00,0.0490,0.0427,0.0455,
新宿 (Shinjuku),2013-01-10,17:01～18:00,0.0490,0.0417,0.0454,
新宿 (Shinjuku),2013-01-10,16:01～17:00,0.0497,0.0424,0.0457,
新宿 (Shinjuku),2013-01-10,15:01～16:00,0.0501,0.0424,0.0456,
新宿 (Shinjuku),2013-01-10,14:01～15:00,0.0484,0.0431,0.0454,
新宿 (Shinjuku),2013-01-10,13:01～14:00,0.0489,0.0427,0.0456,
新宿 (Shinjuku),2013-01-10,12:01～13:00,0.0483,0.0413,0.0458,
新宿 (Shinjuku),2013-01-10,11:01～12:00,0.0490,0.0428,0.0456,
新宿 (Shinjuku),2013-01-10,10:01～11:00,0.0497,0.0419,0.0459,
新宿 (Shinjuku),2013-01-10,09:01～10:00,0.0495,0.0428,0.0461,
新宿 (Shinjuku),2013-01-10,08:01～09:00,0.0492,0.0427,0.0459,
新宿 (Shinjuku),2013-01-10,07:01～08:00,0.0494,0.0427,0.0462,
新宿 (Shinjuku),2013-01-10,06:01～07:00,0.0517,0.0431,0.0466,
新宿 (Shinjuku),2013-01-10,05:01～06:00,0.0495,0.0430,0.0467,
新宿 (Shinjuku),2013-01-10,04:01～05:00,0.0499,0.0440,0.0466,
新宿 (Shinjuku),2013-01-10,03:01～04:00,0.0501,0.0439,0.0464,
新宿 (Shinjuku),2013-01-10,02:01～03:00,0.0490,0.0433,0.0465,
新宿 (Shinjuku),2013-01-10,01:01～02:00,0.0490,0.0444,0.0465,
新宿 (Shinjuku),2013-01-10,00:01～01:00,0.0489,0.0430,0.0459,
新宿 (Shinjuku),2013-01-09,23:01～24:00,0.0492,0.0427,0.0457,
新宿 (Shinjuku),2013-01-09,22:01～23:00,0.0497,0.0436,0.0459,
新宿 (Shinjuku),2013-01-09,21:01～22:00,0.0482,0.0433,0.0457,
新宿 (Shinjuku),2013-01-09,20:01～21:00,0.0497,0.0426,0.0454,
新宿 (Shinjuku),2013-01-09,19:01～20:00,0.0484,0.0422,0.0455,
新宿 (Shinjuku),2013-01-09,18:01～19:00,0.0484,0.0428,0.0458,
新宿 (Shinjuku),2013-01-09,17:01～18:00,0.0493,0.0421,0.0457,
新宿 (Shinjuku),2013-01-09,16:01～17:00,0.0494,0.0418,0.0457,
新宿 (Shinjuku),2013-01-09,15:01～16:00,0.0501,0.0426,0.0458,
新宿 (Shinjuku),2013-01-09,14:01～15:00,0.0497,0.0423,0.0463,
新宿 (Shinjuku),2013-01-09,13:01～14:00,0.0482,0.0427,0.0458,
新宿 (Shinjuku),2013-01-09,12:01～13:00,0.0500,0.0428,0.0461,
新宿 (Shinjuku),2013-01-09,11:01～12:00,0.0495,0.0430,0.0462,
新宿 (Shinjuku),2013-01-09,10:01～11:00,0.0498,0.0431,0.0463,
新宿 (Shinjuku),2013-01-09,09:01～10:00,0.0496,0.0436,0.0463,
新宿 (Shinjuku),2013-01-09,08:01～09:00,0.0507,0.0440,0.0471,
新宿 (Shinjuku),2013-01-09,07:01～08:00,0.0496,0.0440,0.0469,
新宿 (Shinjuku),2013-01-09,06:01～07:00,0.0505,0.0424,0.0473,
新宿 (Shinjuku),2013-01-09,05:01～06:00,0.0497,0.0439,0.0471,
新宿 (Shinjuku),2013-01-09,04:01～05:00,0.0494,0.0426,0.0462,
新宿 (Shinjuku),2013-01-09,03:01～04:00,0.0507,0.0422,0.0464,
新宿 (Shinjuku),2013-01-09,02:01～03:00,0.0501,0.0421,0.0459,
新宿 (Shinjuku),2013-01-09,01:01～02:00,0.0496,0.0417,0.0460,
新宿 (Shinjuku),2013-01-09,00:01～01:00,0.0498,0.0427,0.0456,
新宿 (Shinjuku),2013-01-08,23:01～24:00,0.0497,0.0436,0.0461,
新宿 (Shinjuku),2013-01-08,22:01～23:00,0.0496,0.0418,0.0458,
新宿 (Shinjuku),2013-01-08,21:01～22:00,0.0495,0.0418,0.0458,
新宿 (Shinjuku),2013-01-08,20:01～21:00,0.0500,0.0425,0.0454,
新宿 (Shinjuku),2013-01-08,19:01～20:00,0.0478,0.0419,0.0450,
新宿 (Shinjuku),2013-01-08,18:01～19:00,0.0491,0.0421,0.0450,
新宿 (Shinjuku),2013-01-08,17:01～18:00,0.0487,0.0426,0.0455,
新宿 (Shinjuku),2013-01-08,16:01～17:00,0.0492,0.0423,0.0455,
新宿 (Shinjuku),2013-01-08,15:01～16:00,0.0498,0.0428,0.0461,
新宿 (Shinjuku),2013-01-08,14:01～15:00,0.0489,0.0437,0.0460,
新宿 (Shinjuku),2013-01-08,13:01～14:00,0.0511,0.0427,0.0462,
新宿 (Shinjuku),2013-01-08,12:01～13:00,0.0500,0.0436,0.0464,
新宿 (Shinjuku),2013-01-08,11:01～12:00,0.0504,0.0434,0.0471,
新宿 (Shinjuku),2013-01-08,10:01～11:00,0.0501,0.0437,0.0474,
新宿 (Shinjuku),2013-01-08,09:01～10:00,0.0506,0.0427,0.0476,
新宿 (Shinjuku),2013-01-08,08:01～09:00,0.0499,0.0432,0.0474,
新宿 (Shinjuku),2013-01-08,07:01～08:00,0.0511,0.0442,0.0475,
新宿 (Shinjuku),2013-01-08,06:01～07:00,0.0511,0.0432,0.0468,
新宿 (Shinjuku),2013-01-08,05:01～06:00,0.0505,0.0436,0.0467,
新宿 (Shinjuku),2013-01-08,04:01～05:00,0.0508,0.0422,0.0464,
新宿 (Shinjuku),2013-01-08,03:01～04:00,0.0499,0.0432,0.0464,
新宿 (Shinjuku),2013-01-08,02:01～03:00,0.0493,0.0439,0.0464,
新宿 (Shinjuku),2013-01-08,01:01～02:00,0.0515,0.0439,0.0471,
新宿 (Shinjuku),2013-01-08,00:01～01:00,0.0508,0.0434,0.0465,
新宿 (Shinjuku),2013-01-07,23:01～24:00,0.0489,0.0423,0.0461,
新宿 (Shinjuku),2013-01-07,22:01～23:00,0.0511,0.0434,0.0465,
新宿 (Shinjuku),2013-01-07,21:01～22:00,0.0493,0.0415,0.0461,
新宿 (Shinjuku),2013-01-07,20:01～21:00,0.0490,0.0419,0.0459,
新宿 (Shinjuku),2013-01-07,19:01～20:00,0.0486,0.0417,0.0459,
新宿 (Shinjuku),2013-01-07,18:01～19:00,0.0494,0.0420,0.0455,
新宿 (Shinjuku),2013-01-07,17:01～18:00,0.0477,0.0419,0.0451,
新宿 (Shinjuku),2013-01-07,16:01～17:00,0.0484,0.0431,0.0455,
新宿 (Shinjuku),2013-01-07,15:01～16:00,0.0487,0.0429,0.0456,
新宿 (Shinjuku),2013-01-07,14:01～15:00,0.0488,0.0427,0.0458,
新宿 (Shinjuku),2013-01-07,13:01～14:00,0.0485,0.0428,0.0458,
新宿 (Shinjuku),2013-01-07,12:01～13:00,0.0490,0.0417,0.0455,
新宿 (Shinjuku),2013-01-07,11:01～12:00,0.0500,0.0420,0.0454,
新宿 (Shinjuku),2013-01-07,10:01～11:00,0.0501,0.0424,0.0457,
新宿 (Shinjuku),2013-01-07,09:01～10:00,0.0494,0.0426,0.0459,
新宿 (Shinjuku),2013-01-07,08:01～09:00,0.0498,0.0430,0.0463,
新宿 (Shinjuku),2013-01-07,07:01～08:00,0.0483,0.0425,0.0457,
新宿 (Shinjuku),2013-01-07,06:01～07:00,0.0486,0.0416,0.0455,
新宿 (Shinjuku),2013-01-07,05:01～06:00,0.0491,0.0421,0.0456,
新宿 (Shinjuku),2013-01-07,04:01～05:00,0.0489,0.0431,0.0457,
新宿 (Shinjuku),2013-01-07,03:01～04:00,0.0486,0.0419,0.0456,
新宿 (Shinjuku),2013-01-07,02:01～03:00,0.0477,0.0415,0.0453,
新宿 (Shinjuku),2013-01-07,01:01～02:00,0.0500,0.0418,0.0457,
新宿 (Shinjuku),2013-01-07,00:01～01:00,0.0491,0.0419,0.0456,
